Latest Coastal Weather Observations for Creal Reef

IDQ60701

Issued at 1:42 pm EST Saturday 5 September 2015 (issued every 10 minutes, with the page automatically refreshed every 10 minutes)

About coastal observations | Map of coastal stations | Coastal observations for QLD | Marine services | Other Formats
Station Details ID: 200736 Name: CREAL REEF Lat: -20.53 Lon: 150.38 Height: 1.7 m
Data from the previous 72 hours. | See also: Recent months for locations in Queensland
Date/Time
EST
Temp

°C
Wind Pressure Rain
since 9am
mm
Weather Cloud Vis
km
Sea
Height
m
Swell
Dir
 
Speed
knots
Gust
knots
hPa Trend Height
m
Period
s
Dir
05/01:30pm 21.7 SE 11 14 1017.7 - - - - - - - - -
05/01:20pm 21.8 SSE 11 - 1017.8 - - - - - - - - -
05/01:00pm 21.7 SE 10 14 1018.0 - - - - - - - - -
05/12:30pm 21.7 SE 10 13 1018.3 - - - - - - - - -
05/12:20pm 21.8 SE 10 - 1018.3 - - - - - - - - -
05/12:00pm 21.9 SE 11 13 1018.7 - - - - - - - - -
05/11:30am 21.9 SE 10 14 1019.1 - - - - - - - - -
05/11:20am 22.0 SE 11 - 1019.1 - - - - - - - - -
05/11:00am 21.8 SE 10 14 1019.5 - - - - - - - - -
05/10:30am 21.9 SE 10 14 1019.8 - - - - - - - - -
05/10:20am 21.9 SE 11 - 1019.8 - - - - - - - - -
05/10:00am 22.0 SE 10 12 1019.9 - - - - - - - - -
05/09:30am 22.0 SE 9 12 1020.1 - - - - - - - - -
05/09:20am 21.8 SE 9 - 1020.0 - - - - - - - - -
05/09:00am 21.9 SE 9 12 1020.1 - - - - - - - - -
05/08:30am 21.8 SE 10 13 1019.8 - - - - - - - - -
05/08:20am 21.8 SE 9 - 1019.6 - - - - - - - - -
05/08:00am 21.9 SE 10 13 1019.6 - - - - - - - - -
05/07:30am 21.8 ESE 9 12 1019.3 - - - - - - - - -
05/07:20am 21.7 SE 9 - 1019.1 - - - - - - - - -
05/07:00am 21.6 ESE 10 12 1018.9 - - - - - - - - -
05/06:30am 21.4 SE 9 12 1018.7 - - - - - - - - -
05/06:20am 21.4 SE 9 - 1018.6 - - - - - - - - -
05/06:00am 21.4 SE 8 12 1018.5 - - - - - - - - -
05/05:30am 21.4 SE 9 12 1018.3 - - - - - - - - -
05/05:20am 21.3 SSE 9 - 1018.1 - - - - - - - - -
05/05:00am 21.4 SE 9 11 1017.9 - - - - - - - - -
05/04:30am 21.5 SE 8 11 1017.7 - - - - - - - - -
05/04:20am 21.5 SE 8 - 1017.4 - - - - - - - - -
05/04:00am 21.4 SE 7 10 1017.5 - - - - - - - - -
05/03:30am 21.4 SE 8 10 1017.4 - - - - - - - - -
05/03:20am 21.5 SE 8 - 1017.3 - - - - - - - - -
05/03:00am 21.7 SE 8 10 1017.5 - - - - - - - - -
05/02:30am 21.7 ESE 8 9 1017.7 - - - - - - - - -
05/02:20am 21.8 ESE 8 - 1017.6 - - - - - - - - -
05/02:00am 21.9 ESE 8 11 1017.8 - - - - - - - - -
05/01:30am 21.9 ESE 9 11 1018.1 - - - - - - - - -
05/01:20am 21.8 ESE 9 - 1018.0 - - - - - - - - -
05/12:30am 21.7 E 10 11 1018.5 - - - - - - - - -
05/12:20am 21.7 E 11 - 1018.4 - - - - - - - - -
05/12:00am 21.7 E 11 12 1018.7 - - - - - - - - -
 
Date/Time
EST
Temp

°C
Wind Pressure Rain
since 9am
mm
Weather Cloud Vis
km
Sea
Height
m
Swell
Dir
 
Speed
knots
Gust
knots
hPa Trend Height
m
Period
s
Dir
04/11:30pm 21.7 E 11 14 1018.7 - - - - - - - - -
04/11:20pm 21.6 E 12 - 1018.6 - - - - - - - - -
04/11:00pm 21.6 E 11 14 1018.8 - - - - - - - - -
04/10:30pm 21.8 E 11 13 1019.0 - - - - - - - - -
04/10:20pm 21.6 E 11 - 1018.9 - - - - - - - - -
04/10:00pm 21.6 ESE 12 14 1019.0 - - - - - - - - -
04/09:30pm 21.7 ESE 12 14 1018.9 - - - - - - - - -
04/09:20pm 21.7 ESE 12 - 1018.8 - - - - - - - - -
04/09:00pm 21.6 ESE 12 16 1018.8 - - - - - - - - -
04/08:30pm 21.7 ESE 14 16 1018.5 - - - - - - - - -
04/08:20pm 21.6 ESE 14 - 1018.4 - - - - - - - - -
04/08:00pm 21.6 E 13 16 1018.1 - - - - - - - - -
04/07:30pm 21.5 E 14 16 1017.7 - - - - - - - - -
04/07:20pm 21.6 E 13 - 1017.5 - - - - - - - - -
04/07:00pm 21.6 E 14 17 1017.4 - - - - - - - - -
04/06:30pm 21.6 E 13 15 1017.1 - - - - - - - - -
04/06:20pm 21.6 E 13 - 1016.9 - - - - - - - - -
04/06:00pm 21.5 ESE 13 15 1016.8 - - - - - - - - -
04/05:30pm 21.6 ESE 13 15 1016.8 - - - - - - - - -
04/05:20pm 21.8 SE 13 - 1016.7 - - - - - - - - -
04/05:00pm 21.8 SE 14 16 1016.6 - - - - - - - - -
04/04:30pm 21.8 SE 13 16 1016.5 - - - - - - - - -
04/04:20pm 21.9 SE 12 - 1016.4 - - - - - - - - -
04/04:00pm 21.9 SE 14 17 1016.3 - - - - - - - - -
04/03:30pm 22.0 SSE 13 16 1016.1 - - - - - - - - -
04/03:20pm 21.9 SSE 13 - 1016.0 - - - - - - - - -
04/03:00pm 22.2 SSE 12 15 1016.1 - - - - - - - - -
04/02:30pm 22.4 SE 13 17 1016.2 - - - - - - - - -
04/02:20pm 22.3 SSE 13 - 1016.1 - - - - - - - - -
04/02:00pm 22.2 SE 14 17 1016.5 - - - - - - - - -
04/01:30pm 22.3 SE 14 17 1016.8 - - - - - - - - -
04/01:20pm 22.3 SE 13 - 1016.9 - - - - - - - - -
04/01:00pm 22.5 SE 14 19 1017.2 - - - - - - - - -
04/12:30pm 22.4 SSE 15 19 1017.4 - - - - - - - - -
04/12:20pm 22.6 SSE 17 - 1017.4 - - - - - - - - -
04/12:00pm 22.6 SSE 15 19 1017.7 - - - - - - - - -
04/11:30am 22.7 SSE 18 21 1018.1 - - - - - - - - -
04/11:20am 22.6 SSE 17 - 1018.2 - - - - - - - - -
04/11:00am 22.7 SSE 17 22 1018.5 - - - - - - - - -
04/10:30am 22.9 SSE 18 22 1018.8 - - - - - - - - -
04/10:20am 22.8 SSE 17 - 1018.7 - - - - - - - - -
04/10:00am 22.8 SSE 17 21 1018.8 - - - - - - - - -
04/09:30am 22.8 SSE 16 21 1018.7 - - - - - - - - -
04/09:20am 23.0 SSE 18 - 1018.6 - - - - - - - - -
04/09:00am 23.0 SE 17 22 1018.5 - - - - - - - - -
04/08:30am 23.1 SSE 19 22 1018.3 - - - - - - - - -
04/08:20am 23.0 SSE 18 - 1018.1 - - - - - - - - -
04/08:00am 23.1 SSE 20 23 1018.1 - - - - - - - - -
04/07:30am 23.3 S 20 22 1017.7 - - - - - - - - -
04/07:20am 23.3 S 19 - 1017.5 - - - - - - - - -
04/07:00am 23.5 S 19 23 1017.3 - - - - - - - - -
04/06:30am 23.7 S 19 21 1016.8 - - - - - - - - -
04/06:20am 23.5 S 17 - 1016.5 - - - - - - - - -
04/06:00am 23.6 S 14 17 1016.5 - - - - - - - - -
04/05:30am 23.4 S 12 16 1016.2 - - - - - - - - -
04/05:20am 23.3 S 13 - 1016.0 - - - - - - - - -
04/05:00am 23.3 S 13 15 1015.9 - - - - - - - - -
04/04:30am 23.6 S 15 17 1015.7 - - - - - - - - -
04/04:20am 23.6 S 16 - 1015.5 - - - - - - - - -
04/04:00am 23.7 S 16 19 1015.5 - - - - - - - - -
04/03:30am 23.9 S 14 17 1015.5 - - - - - - - - -
04/03:20am 23.7 S 14 - 1015.4 - - - - - - - - -
04/03:00am 23.0 SSW 13 15 1015.5 - - - - - - - - -
04/02:30am 22.8 SSW 15 19 1015.5 - - - - - - - - -
04/02:20am 22.7 SSW 15 - 1015.4 - - - - - - - - -
04/02:00am 22.5 SW 14 17 1015.8 - - - - - - - - -
04/01:30am 22.8 WSW 13 15 1016.1 - - - - - - - - -
04/01:20am 22.8 WSW 13 - 1016.0 - - - - - - - - -
04/01:00am 22.9 W 13 16 1016.2 - - - - - - - - -
04/12:30am 23.2 W 15 17 1016.6 - - - - - - - - -
04/12:20am 23.2 W 15 - 1016.4 - - - - - - - - -
04/12:00am 23.2 W 16 18 1016.5 - - - - - - - - -
 
Date/Time
EST
Temp

°C
Wind Pressure Rain
since 9am
mm
Weather Cloud Vis
km
Sea
Height
m
Swell
Dir
 
Speed
knots
Gust
knots
hPa Trend Height
m
Period
s
Dir
03/11:30pm 23.3 W 16 19 1016.6 - - - - - - - - -
03/11:20pm 23.3 WNW 16 - 1016.5 - - - - - - - - -
03/11:00pm 23.3 WNW 16 19 1016.7 - - - - - - - - -
03/10:30pm 23.4 NW 16 19 1016.6 - - - - - - - - -
03/10:20pm 23.4 NW 15 - 1016.5 - - - - - - - - -
03/10:00pm 23.4 NW 14 17 1016.4 - - - - - - - - -
03/09:30pm 23.4 NW 14 17 1016.3 - - - - - - - - -
03/09:20pm 23.5 NW 15 - 1016.1 - - - - - - - - -
03/09:00pm 23.4 NW 14 16 1016.1 - - - - - - - - -
03/08:30pm 23.5 NW 15 17 1015.9 - - - - - - - - -
03/08:20pm 23.5 NNW 15 - 1015.7 - - - - - - - - -
03/08:00pm 23.6 NNW 15 17 1015.8 - - - - - - - - -
03/07:30pm 23.6 NNW 17 19 1015.2 - - - - - - - - -
03/07:20pm 23.5 NNW 17 - 1014.9 - - - - - - - - -
03/07:00pm 23.6 NNW 17 19 1014.8 - - - - - - - - -
03/06:30pm 23.5 NNW 16 19 1014.5 - - - - - - - - -
03/06:20pm 23.5 NNW 17 - 1014.2 - - - - - - - - -
03/06:00pm 23.6 NNW 18 21 1014.2 - - - - - - - - -
03/05:30pm 23.5 NNW 18 21 1014.0 - - - - - - - - -
03/05:20pm 23.6 NNW 18 - 1014.0 - - - - - - - - -
03/05:00pm 23.7 NNW 19 23 1014.1 - - - - - - - - -
03/04:30pm 23.8 NNW 19 23 1014.1 - - - - - - - - -
03/04:20pm 23.7 NNW 20 - 1013.9 - - - - - - - - -
03/04:00pm 23.6 NNW 20 23 1014.1 - - - - - - - - -
03/03:30pm 23.7 NNW 17 20 1014.3 - - - - - - - - -
03/03:20pm 23.5 NNW 17 - 1014.2 - - - - - - - - -
03/03:00pm 23.7 NNW 18 21 1014.4 - - - - - - - - -
03/02:30pm 23.7 NNW 19 22 1014.8 - - - - - - - - -
03/02:20pm 23.6 NNW 19 - 1014.8 - - - - - - - - -
03/02:00pm 23.6 NNW 19 21 1015.0 - - - - - - - - -
03/01:30pm 23.7 NNW 18 21 1015.5 - - - - - - - - -
03/01:20pm 23.7 NNW 17 - 1015.5 - - - - - - - - -
03/01:00pm 23.7 NNW 16 18 1015.9 - - - - - - - - -
03/12:30pm 23.5 NNW 16 18 1016.3 - - - - - - - - -
03/12:20pm 23.6 NNW 16 - 1016.3 - - - - - - - - -
03/12:00pm 23.6 NNW 15 17 1016.9 - - - - - - - - -
03/11:30am 23.8 NNW 13 14 1017.7 - - - - - - - - -
03/11:20am 23.8 NNW 12 - 1017.9 - - - - - - - - -
03/11:00am 23.7 NNW 13 15 1018.2 - - - - - - - - -
03/10:30am 23.6 NNW 13 15 1018.6 - - - - - - - - -
03/10:20am 23.7 NNW 14 - 1018.5 - - - - - - - - -
03/10:00am 23.5 NNW 15 17 1018.6 - - - - - - - - -
03/09:30am 23.7 NNW 15 18 1018.6 - - - - - - - - -
03/09:20am 23.5 NNW 16 - 1018.4 - - - - - - - - -
03/09:00am 23.3 NNW 14 17 1018.5 - - - - - - - - -
03/08:30am 23.3 NNW 16 18 1018.2 - - - - - - - - -
03/08:20am 23.3 NNW 14 - 1018.0 - - - - - - - - -
03/08:00am 23.3 NNW 17 19 1017.8 - - - - - - - - -
03/07:30am 23.3 NNW 16 18 1017.4 - - - - - - - - -
03/07:20am 23.2 NNW 16 - 1017.1 - - - - - - - - -
03/07:00am 23.1 NNW 17 19 1016.9 - - - - - - - - -
03/06:30am 23.1 NNW 16 18 1016.5 - - - - - - - - -
03/06:20am 23.0 NNW 15 - 1016.3 - - - - - - - - -
03/06:00am 23.0 NNW 16 18 1016.1 - - - - - - - - -
03/05:30am 23.0 N 15 18 1015.8 - - - - - - - - -
03/05:20am 22.9 N 15 - 1015.5 - - - - - - - - -
03/05:00am 22.9 N 16 18 1015.4 - - - - - - - - -
03/04:30am 22.9 N 16 18 1015.1 - - - - - - - - -
03/04:20am 22.9 N 17 - 1014.8 - - - - - - - - -
03/04:00am 22.9 N 16 18 1014.8 - - - - - - - - -
03/03:30am 22.9 N 16 18 1014.8 - - - - - - - - -
03/03:20am 22.9 N 16 - 1014.7 - - - - - - - - -
03/03:00am 22.9 N 16 18 1015.0 - - - - - - - - -
03/02:30am 22.8 N 15 17 1015.3 - - - - - - - - -
03/02:20am 22.8 NNE 14 - 1015.3 - - - - - - - - -
03/02:00am 22.9 NNE 16 18 1015.4 - - - - - - - - -
03/01:30am 22.9 N 17 20 1015.4 - - - - - - - - -
03/01:20am 22.9 N 18 - 1015.3 - - - - - - - - -
03/01:00am 22.9 NNE 20 23 1015.1 - - - - - - - - -
03/12:30am 23.0 NNE 17 19 1016.1 - - - - - - - - -
03/12:20am 22.9 NNE 16 - 1016.2 - - - - - - - - -
03/12:00am 23.1 NNE 18 21 1016.3 - - - - - - - - -
 
Date/Time
EST
Temp

°C
Wind Pressure Rain
since 9am
mm
Weather Cloud Vis
km
Sea
Height
m
Swell
Dir
 
Speed
knots
Gust
knots
hPa Trend Height
m
Period
s
Dir
02/11:30pm 23.0 NNE 18 21 1016.4 - - - - - - - - -
02/11:20pm 22.9 NNE 18 - 1016.3 - - - - - - - - -
02/11:00pm 22.9 NNE 18 20 1016.4 - - - - - - - - -
02/10:30pm 23.0 NNE 19 22 1016.5 - - - - - - - - -
02/10:20pm 23.1 N 18 - 1016.6 - - - - - - - - -
02/10:00pm 23.0 N 16 19 1017.1 - - - - - - - - -
02/09:30pm 23.1 N 15 17 1017.0 - - - - - - - - -
02/09:20pm 23.0 N 16 - 1016.9 - - - - - - - - -
02/09:00pm 23.1 N 15 17 1016.9 - - - - - - - - -
02/08:30pm 23.0 NNE 15 17 1016.9 - - - - - - - - -
02/08:20pm 23.2 NNE 15 - 1016.8 - - - - - - - - -
02/08:00pm 23.0 NE 15 17 1016.9 - - - - - - - - -
02/07:30pm 23.0 NNE 15 17 1016.7 - - - - - - - - -
02/07:20pm 23.1 NE 15 - 1016.5 - - - - - - - - -
02/07:00pm 23.0 NE 16 18 1016.4 - - - - - - - - -
02/06:30pm 23.1 NE 16 18 1016.1 - - - - - - - - -
02/06:20pm 23.2 NNE 16 - 1015.9 - - - - - - - - -
02/06:00pm 23.1 N 16 18 1015.8 - - - - - - - - -
02/05:30pm 23.2 N 15 16 1015.8 - - - - - - - - -
02/05:20pm 23.2 N 15 - 1015.6 - - - - - - - - -
02/05:00pm 23.3 N 14 15 1015.7 - - - - - - - - -
02/04:30pm 23.2 N 12 14 1015.8 - - - - - - - - -
02/04:20pm 23.5 N 12 - 1015.9 - - - - - - - - -
02/04:00pm 23.4 N 12 14 1016.0 - - - - - - - - -
02/03:30pm 23.3 N 12 14 1016.0 - - - - - - - - -
02/03:20pm 23.3 N 12 - 1015.9 - - - - - - - - -
02/03:00pm 23.3 N 10 11 1016.2 - - - - - - - - -
02/02:30pm 23.3 N 11 12 1016.5 - - - - - - - - -
02/02:20pm 23.3 N 10 - 1016.5 - - - - - - - - -
02/02:00pm 23.3 N 11 13 1016.9 - - - - - - - - -

Other Formats:

Comma delimited format used in spreadsheet applications
http://www.bom.gov.au/fwo/IDQ60701/IDQ60701.94371.axf

JavaScript Object Notation format (JSON) in row-major order
http://www.bom.gov.au/fwo/IDQ60701/IDQ60701.94371.json